Location: *
(2.5500°S, 65.9667°W)
Time: 06:20:13
(UTC+00:00)

Explorer 7 - Pass Details

Date: 24 April 2024
Orbit: 467 x 625 km, 50.3° (Epoch: 26 May)

Event Time Altitude Azimuth Distance (km) Brightness Sun altitude
Rises 22:55:34 0° 317° (NW) 2,731 11.4 -8.8°
Reaches altitude 10° 22:57:53 10° 313° (NW) 1,809 10.5 -9.3°
Maximum altitude 23:01:56 58° 233° (SW) 615 7.3 -10.3°
Drops below altitude 10° 23:05:46 10° 154° (SSE) 1,721 9.0 -11.3°
Enters shadow 23:06:30 - 152° (SSE) 2,009 9.3 -11.4°
Sets 23:07:56 0° 150° (SSE) 2,582 - -11.8°
